| time (UTC) | temp F | wind direction | speed MPH | gust MPH | rain 1hr in | rain 24hr in | rain mn in | humidity % | barometer mb |
| 20260508034547 | 64 | 184 | 3.0 | 12.0 | 0.00 | 0.00 | 0.00 | 37 | 1021.8 |
| 20260508033049 | 63 | 194 | 4.0 | 14.0 | 0.00 | 0.00 | 0.00 | 37 | 1021.9 |
| 20260508031554 | 63 | 217 | 6.0 | 14.0 | 0.00 | 0.00 | 0.00 | 37 | 1021.9 |
| 20260508030100 | 62 | 215 | 6.0 | 16.0 | 0.00 | 0.00 | 0.00 | 38 | 1021.9 |
| 20260508024556 | 61 | 179 | 6.0 | 16.0 | 0.00 | 0.00 | 0.00 | 38 | 1022.3 |
| 20260508023048 | 61 | 174 | 7.0 | 14.0 | 0.00 | 0.00 | 0.00 | 36 | 1022.5 |
| 20260508021551 | 61 | 198 | 5.0 | 14.0 | 0.00 | 0.00 | 0.00 | 36 | 1022.6 |
| 20260508020045 | 60 | 184 | 4.0 | 14.0 | 0.00 | 0.00 | 0.00 | 38 | 1022.7 |
| 20260508014545 | 59 | 202 | 3.0 | 11.0 | 0.00 | 0.00 | 0.00 | 41 | 1023.0 |
| 20260508013043 | 58 | 146 | 6.0 | 14.0 | 0.00 | 0.00 | 0.00 | 39 | 1023.4 |
| 20260508011546 | 56 | 183 | 6.0 | 14.0 | 0.00 | 0.00 | 0.00 | 46 | 1023.7 |
| 20260508010045 | 55 | 157 | 4.0 | 12.0 | 0.00 | 0.00 | 0.00 | 45 | 1023.6 |
| 20260508004545 | 55 | 191 | 5.0 | 14.0 | 0.00 | 0.00 | 0.00 | 45 | 1023.7 |
| 20260508003049 | 54 | 194 | 6.0 | 12.0 | 0.00 | 0.00 | 0.00 | 48 | 1023.9 |
| 20260508001547 | 54 | 186 | 3.0 | 9.0 | 0.00 | 0.00 | 0.00 | 48 | 1024.0 |
| 20260508000043 | 53 | 177 | 5.0 | 12.0 | 0.00 | 0.00 | 0.00 | 49 | 1024.0 |
| 20260507234547 | 52 | 177 | 3.0 | 8.0 | 0.00 | 0.00 | 0.00 | 49 | 1024.2 |
| 20260507233045 | 50 | 177 | 4.0 | 12.0 | 0.00 | 0.00 | 0.00 | 51 | 1024.3 |
| 20260507231544 | 50 | 195 | 2.0 | 10.0 | 0.00 | 0.00 | 0.00 | 51 | 1024.2 |
| 20260507230044 | 49 | 179 | 3.0 | 9.0 | 0.00 | 0.00 | 0.00 | 53 | 1024.1 |
| 20260507224540 | 48 | 171 | 2.0 | 10.0 | 0.00 | 0.00 | 0.00 | 54 | 1024.2 |
| 20260507223048 | 47 | 197 | 3.0 | 9.0 | 0.00 | 0.00 | 0.00 | 56 | 1024.2 |
| 20260507221547 | 45 | 207 | 5.0 | 10.0 | 0.00 | 0.00 | 0.00 | 58 | 1024.1 |
| 20260507220048 | 44 | 182 | 3.0 | 9.0 | 0.00 | 0.00 | 0.00 | 58 | 1024.0 |
| 20260507214552 | 43 | 173 | 5.0 | 12.0 | 0.00 | 0.00 | 0.00 | 59 | 1023.6 |
| 20260507213057 | 42 | 167 | 4.0 | 11.0 | 0.00 | 0.00 | 0.00 | 61 | 1023.7 |
| 20260507211546 | 41 | 174 | 6.0 | 12.0 | 0.00 | 0.00 | 0.00 | 62 | 1023.7 |
| 20260507210057 | 39 | 173 | 5.0 | 12.0 | 0.00 | 0.00 | 0.00 | 63 | 1023.7 |
| 20260507204555 | 39 | 182 | 5.0 | 11.0 | 0.00 | 0.00 | 0.00 | 64 | 1023.7 |
| 20260507203048 | 38 | 195 | 5.0 | 11.0 | 0.00 | 0.00 | 0.00 | 65 | 1023.0 |
| 20260507201550 | 39 | 173 | 4.0 | 13.0 | 0.00 | 0.00 | 0.00 | 63 | 1023.0 |
| 20260507200055 | 39 | 159 | 5.0 | 14.0 | 0.00 | 0.00 | 0.00 | 62 | 1022.8 |
| 20260507194558 | 40 | 173 | 8.0 | 17.0 | 0.00 | 0.00 | 0.00 | 59 | 1022.5 |
| 20260507193157 | 41 | 159 | 8.0 | 21.0 | 0.00 | 0.00 | 0.00 | 57 | 1022.0 |
| 20260507191616 | 40 | 159 | 7.0 | 16.0 | 0.00 | 0.00 | 0.00 | 59 | 1022.0 |
| 20260507190055 | 40 | 163 | 7.0 | 15.0 | 0.00 | 0.00 | 0.00 | 62 | 1022.1 |
| 20260507184557 | 39 | 128 | 7.0 | 18.0 | 0.00 | 0.00 | 0.00 | 63 | 1021.9 |
| 20260507183051 | 38 | 155 | 8.0 | 15.0 | 0.00 | 0.00 | 0.00 | 65 | 1021.7 |
| 20260507181548 | 38 | 176 | 5.0 | 9.0 | 0.00 | 0.00 | 0.00 | 67 | 1022.4 |
| 20260507180048 | 38 | 182 | 3.0 | 7.0 | 0.00 | 0.00 | 0.00 | 67 | 1022.4 |
| 20260507174547 | 38 | 176 | 3.0 | 7.0 | 0.00 | 0.00 | 0.00 | 68 | 1022.4 |
| 20260507173047 | 38 | 200 | 3.0 | 7.0 | 0.00 | 0.00 | 0.00 | 68 | 1022.3 |
| 20260507171552 | 38 | 188 | 2.0 | 6.0 | 0.00 | 0.00 | 0.00 | 69 | 1022.4 |
| 20260507170042 | 39 | 173 | 3.0 | 7.0 | 0.00 | 0.00 | 0.00 | 68 | 1022.3 |
| 20260507164604 | 39 | 178 | 3.0 | 9.0 | 0.00 | 0.00 | 0.00 | 68 | 1022.1 |
| 20260507163046 | 39 | 203 | 4.0 | 8.0 | 0.00 | 0.00 | 0.00 | 68 | 1021.9 |
| 20260507161601 | 39 | 225 | 3.0 | 7.0 | 0.00 | 0.00 | 0.00 | 68 | 1021.9 |
| 20260507160052 | 40 | 198 | 1.0 | 6.0 | 0.00 | 0.00 | 0.00 | 69 | 1022.0 |
| 20260507154551 | 40 | 167 | 3.0 | 7.0 | 0.00 | 0.00 | 0.00 | 68 | 1022.1 |
| 20260507153052 | 41 | 179 | 4.0 | 10.0 | 0.00 | 0.00 | 0.00 | 68 | 1022.3 |
| 20260507151548 | 42 | 186 | 5.0 | 14.0 | 0.00 | 0.00 | 0.00 | 68 | 1022.1 |
| 20260507150054 | 43 | 184 | 6.0 | 18.0 | 0.00 | 0.00 | 0.00 | 67 | 1021.9 |
| 20260507144552 | 44 | 143 | 6.0 | 19.0 | 0.00 | 0.00 | 0.00 | 64 | 1022.1 |
| 20260507143107 | 44 | 188 | 9.0 | 21.0 | 0.00 | 0.00 | 0.00 | 65 | 1021.9 |
| 20260507141606 | 44 | 168 | 7.0 | 17.0 | 0.00 | 0.00 | 0.00 | 67 | 1022.1 |
| 20260507140048 | 45 | 173 | 3.0 | 18.0 | 0.00 | 0.00 | 0.00 | 71 | 1022.3 |
| 20260507134549 | 46 | 186 | 8.0 | 20.0 | 0.00 | 0.00 | 0.00 | 69 | 1022.1 |
| 20260507133048 | 47 | 177 | 6.0 | 23.0 | 0.00 | 0.00 | 0.00 | 71 | 1021.9 |
| 20260507131607 | 47 | 171 | 9.0 | 22.0 | 0.00 | 0.00 | 0.00 | 71 | 1022.1 |
| 20260507130046 | 47 | 166 | 9.0 | 21.0 | 0.00 | 0.00 | 0.00 | 72 | 1022.1 |
| 20260507124556 | 47 | 226 | 7.0 | 17.0 | 0.00 | 0.09 | 0.00 | 73 | 1022.0 |
| 20260507123103 | 48 | 135 | 6.0 | 17.0 | 0.00 | 0.09 | 0.00 | 75 | 1022.2 |
| 20260507121547 | 48 | 183 | 6.0 | 15.0 | 0.00 | 0.09 | 0.00 | 74 | 1022.1 |
| 20260507120049 | 49 | 155 | 7.0 | 22.0 | 0.00 | 0.09 | 0.00 | 73 | 1022.1 |
| 20260507114551 | 50 | 200 | 8.0 | 22.0 | 0.00 | 0.09 | 0.00 | 74 | 1022.3 |
| 20260507113045 | 51 | 174 | 7.0 | 16.0 | 0.00 | 0.09 | 0.00 | 72 | 1022.1 |
| 20260507111544 | 51 | 196 | 7.0 | 17.0 | 0.00 | 0.09 | 0.00 | 70 | 1022.1 |
| 20260507110051 | 51 | 153 | 6.0 | 19.0 | 0.00 | 0.09 | 0.00 | 69 | 1021.8 |
| 20260507104554 | 52 | 179 | 6.0 | 14.0 | 0.00 | 0.09 | 0.00 | 68 | 1021.8 |
| 20260507103048 | 52 | 186 | 6.0 | 17.0 | 0.00 | 0.09 | 0.00 | 67 | 1021.7 |
| 20260507101550 | 52 | 176 | 6.0 | 14.0 | 0.00 | 0.09 | 0.00 | 65 | 1021.6 |
| 20260507100055 | 53 | 188 | 5.0 | 17.0 | 0.00 | 0.09 | 0.00 | 63 | 1021.6 |
| 20260507094544 | 53 | 207 | 7.0 | 13.0 | 0.00 | 0.09 | 0.00 | 61 | 1021.4 |
| 20260507093049 | 54 | 185 | 6.0 | 13.0 | 0.00 | 0.09 | 0.00 | 59 | 1021.4 |
| 20260507091549 | 54 | 207 | 6.0 | 16.0 | 0.00 | 0.09 | 0.00 | 58 | 1021.3 |
| 20260507090058 | 54 | 155 | 6.0 | 14.0 | 0.00 | 0.09 | 0.00 | 61 | 1021.0 |
| 20260507084553 | 54 | 188 | 4.0 | 15.0 | 0.00 | 0.09 | 0.00 | 62 | 1021.1 |
| 20260507083055 | 55 | 178 | 6.0 | 11.0 | 0.00 | 0.09 | 0.00 | 61 | 1020.9 |
| 20260507081552 | 56 | 170 | 4.0 | 10.0 | 0.00 | 0.09 | 0.00 | 60 | 1020.8 |
| 20260507074550 | 57 | 184 | 6.0 | 13.0 | 0.00 | 0.20 | 0.00 | 56 | 1020.7 |
| 20260507073051 | 58 | 240 | 5.0 | 14.0 | 0.00 | 0.20 | 0.00 | 56 | 1020.5 |
| 20260507071546 | 59 | 167 | 6.0 | 13.0 | 0.00 | 0.20 | 0.00 | 55 | 1020.2 |
| 20260507070058 | 60 | 199 | 7.0 | 15.0 | 0.00 | 0.20 | 0.00 | 53 | 1020.0 |
| 20260507064612 | 61 | 200 | 7.0 | 15.0 | 0.00 | 0.21 | 0.00 | 52 | 1019.9 |
| 20260507063043 | 62 | 187 | 7.0 | 15.0 | 0.00 | 0.21 | 0.00 | 50 | 1019.8 |
| 20260507061546 | 62 | 218 | 6.0 | 16.0 | 0.00 | 0.21 | 0.00 | 50 | 1019.6 |
| 20260507060109 | 62 | 211 | 7.0 | 16.0 | 0.00 | 0.21 | 0.00 | 48 | 1019.7 |
| 20260507054552 | 63 | 204 | 8.0 | 15.0 | 0.00 | 0.21 | 0.00 | 45 | 1019.5 |
| 20260507053045 | 63 | 207 | 6.0 | 14.0 | 0.00 | 0.21 | 0.00 | 47 | 1019.5 |
| 20260507051559 | 64 | 197 | 6.0 | 15.0 | 0.00 | 0.21 | 0.00 | 45 | 1019.4 |
| 20260507050047 | 64 | 230 | 7.0 | 19.0 | 0.00 | 0.21 | 0.00 | 46 | 1019.4 |
| 20260507044550 | 65 | 181 | 8.0 | 19.0 | 0.00 | 0.21 | 0.00 | 45 | 1019.5 |
| 20260507043045 | 66 | 204 | 8.0 | 19.0 | 0.00 | 0.21 | 0.00 | 45 | 1019.5 |
| 20260507041545 | 68 | 156 | 7.0 | 20.0 | 0.00 | 0.21 | 0.00 | 43 | 1019.5 |
| 20260507040045 | 66 | 185 | 8.0 | 17.0 | 0.00 | 0.21 | 0.00 | 47 | 1019.3 |